Regional Weather Roundup
Issued by NWS

Home | Current Version | Previous Version | Graphics & Text | Print | Product List | Glossary On
Versions: 1 2 3 4 5 6 7 8 9 10 11 12 13 14 15 16 17 18 19 20 21 22 23 24 25 26 27
000
ASUS45 KBOI 191310
RWRID

IDAHO REGIONAL WEATHER ROUNDUP
NATIONAL WEATHER SERVICE BOISE ID
700 AM MDT THU APR 19 2018

NOTE: "FAIR" INDICATES FEW OR NO CLOUDS BELOW 12000 FEET
WITH NO SIGNIFICANT WEATHER AND/OR OBSTRUCTIONS TO VISIBILITY

IDZ012-014-191400-
SOUTHWEST IDAHO


CITY           SKY/WX    TMP DP  RH WIND       PRES   REMARKS
BOISE          CLOUDY    43  35  73 CALM      29.92S
CALDWELL       CLOUDY    45  34  65 W10       29.94R
MOUNTAIN HOME  CLOUDY    42  39  90 CALM      29.91S
$$

IDZ016-017-191400-
SOUTHCENTRAL IDAHO


CITY           SKY/WX    TMP DP  RH WIND       PRES   REMARKS
BURLEY         CLOUDY    40  24  53 NE10G17   29.88F WCI  33
JEROME         CLOUDY    45  19  35 NE24      29.88F
TWIN FALLS     CLOUDY    41  26  55 E13       29.88F
$$

IDZ019>023-191400-
SOUTHEAST IDAHO


CITY           SKY/WX    TMP DP  RH WIND       PRES   REMARKS
IDAHO FALLS    CLOUDY    35  26  69 N9        29.97S WCI  28
POCATELLO      CLOUDY    36  28  73 N5        29.94S WCI  32
REXBURG        CLOUDY    38  24  57 NE5       29.97F WCI  34
$$

IDZ006-010-011-018-031-032-191400-
CENTRAL IDAHO MOUNTAINS


CITY           SKY/WX    TMP DP  RH WIND       PRES   REMARKS
MCCALL         MOCLDY    31  24  75 VRB3      29.96S
HAILEY         CLOUDY    39  23  52 NW10      29.96S WCI  32
STANLEY          N/A     25  20  81 CALM      30.01S
SALMON         PTCLDY    32  25  75 SE3       30.05F
CHALLIS        NOT AVBL
$$

IDZ002-004-006-007-026-191400-
NORTHERN IDAHO


CITY           SKY/WX    TMP DP  RH WIND       PRES   REMARKS
LEWISTON       PTCLDY    42  32  67 W3        30.09R
LOWELL           N/A     38  36  92 N3        30.11R
COEUR D`ALENE  CLEAR     33  29  85 NE12      30.12S WCI  24
MULLAN PASS    CLEAR     30  17  58 SE6       30.06S WCI  24
$$




USA.gov is the U.S. government's official web portal to all federal, state and local government web resources and services.